TDO SPACECRAFT (44482 NORAD) Tracking and Keplerian Element Data

This shows tracking and keplerian element data for the satellite.

Feedback or suggestion? Click here.




ElementValue
Catalog44482
NameTDO SPACECRAFT
Epoch Orbit57
Epoch Day245.5
Epoch Year2019
RAAN290.383
Inclination26.232
Eccentricity0.7267013
Argument of Perigee196.076
Mean Anonmoly13.674
Mean Motion2.31764603
Decay Rate-7.2E-07
L11 44482U 19051B 19245.50000000 -.00000072 00000-0 00000+0 0 9993
L22 44482 26.2320 290.3830 7267013 196.0760 13.6740 2.31764603 574

Live tracking and technical data element details for TDO SPACECRAFT (NORAD 44482). TDO SPACECRAFT can be tracked NOW for your location showing map with azimuth and elevation plus other details from your city location.

Track the satellite on the map from your city or location and see movement details for azimuth, elevation, latitude, longitude, range, height, and movement on the map or in text.







IsCatalogInMostPopularTable: catalog: 44482, numindb: 60
Update: records affected: 1



GetName: 44482 TDO SPACECRAFT

Hit Count: updated at: Thu, 05 Dec 2019 16:49:06 GMT